| time (UTC) | temp C | wind direction | speed KPH | gust KPH | rain 1hr cm | rain 24hr cm | rain mn cm | humidity % | barometer mb |
| 20260502163028 | 20 | 354 | 4.8 | 14.5 | 0.00 | 0.81 | 0.00 | 56 | 1020.6 |
| 20260502161618 | 20 | 48 | 1.6 | 9.7 | 0.00 | 0.81 | 0.00 | 56 | 1020.7 |
| 20260502151516 | 18 | 66 | 4.8 | 12.9 | 0.00 | 1.14 | 0.00 | 59 | 1020.3 |
| 20260502130110 | 14 | 301 | 0.0 | 6.4 | 0.00 | 1.68 | 0.00 | 84 | 1019.4 |
| 20260502123005 | 13 | 328 | 0.0 | 1.6 | 0.00 | 1.98 | 0.00 | 91 | 1018.6 |
| 20260502121608 | 12 | 328 | 0.0 | 1.6 | 0.00 | 1.98 | 0.00 | 91 | 1018.5 |
| 20260502114509 | 12 | 325 | 0.0 | 1.6 | 0.00 | 2.01 | 0.00 | 91 | 1018.0 |
| 20260502113106 | 12 | 325 | 0.0 | 3.2 | 0.00 | 2.01 | 0.00 | 91 | 1017.8 |
| 20260502111515 | 12 | 310 | 0.0 | 1.6 | 0.00 | 2.01 | 0.00 | 90 | 1017.5 |
| 20260502110006 | 12 | 328 | 0.0 | 6.4 | 0.00 | 2.01 | 0.00 | 89 | 1017.3 |
| 20260502104523 | 12 | 346 | 0.0 | 6.4 | 0.00 | 2.01 | 0.00 | 90 | 1017.0 |
| 20260502103114 | 12 | 322 | 0.0 | 3.2 | 0.00 | 2.01 | 0.00 | 89 | 1016.8 |
| 20260502101514 | 13 | 333 | 1.6 | 6.4 | 0.00 | 2.01 | 0.00 | 89 | 1016.8 |
| 20260502090116 | 13 | 354 | 1.6 | 8.0 | 0.00 | 2.01 | 0.00 | 89 | 1016.5 |
| 20260502071520 | 13 | 354 | 0.0 | 8.0 | 0.00 | 2.01 | 0.00 | 91 | 1016.6 |
| 20260502070013 | 13 | 342 | 0.0 | 3.2 | 0.00 | 2.01 | 0.00 | 91 | 1016.3 |
| 20260502064511 | 13 | 298 | 0.0 | 3.2 | 0.00 | 2.01 | 0.00 | 91 | 1016.5 |
| 20260502063016 | 13 | 347 | 0.0 | 4.8 | 0.00 | 2.01 | 0.00 | 91 | 1016.8 |
| 20260502061512 | 13 | 354 | 0.0 | 0.0 | 0.00 | 2.01 | 0.00 | 92 | 1016.7 |
| 20260502060008 | 13 | 359 | 0.0 | 3.2 | 0.00 | 2.01 | 0.00 | 92 | 1016.8 |
| 20260502054611 | 13 | 332 | 0.0 | 1.6 | 0.00 | 2.01 | 0.00 | 93 | 1016.7 |
| 20260502053015 | 13 | 332 | 0.0 | 1.6 | 0.00 | 2.01 | 0.00 | 93 | 1016.7 |
| 20260502051531 | 12 | 328 | 0.0 | 3.2 | 0.00 | 2.01 | 0.00 | 93 | 1016.7 |
| 20260502050010 | 12 | 330 | 0.0 | 3.2 | 0.00 | 2.01 | 2.01 | 94 | 1016.4 |
| 20260502044506 | 12 | 328 | 0.0 | 0.0 | 0.00 | 2.01 | 2.01 | 94 | 1016.1 |
| 20260502043008 | 13 | 328 | 0.0 | 1.6 | 0.00 | 2.01 | 2.01 | 94 | 1016.0 |
| 20260502041619 | 13 | 328 | 0.0 | 0.0 | 0.00 | 2.01 | 2.01 | 94 | 1016.3 |
| 20260502040009 | 13 | 328 | 0.0 | 1.6 | 0.00 | 2.01 | 2.01 | 94 | 1016.4 |
| 20260502034513 | 13 | 328 | 0.0 | 0.0 | 0.00 | 2.01 | 2.01 | 93 | 1016.3 |
| 20260502033004 | 13 | 328 | 0.0 | 0.0 | 0.03 | 2.01 | 2.01 | 93 | 1016.1 |
| 20260502031508 | 13 | 328 | 0.0 | 1.6 | 0.03 | 2.01 | 2.01 | 93 | 1016.1 |
| 20260502030008 | 13 | 319 | 0.0 | 0.0 | 0.03 | 2.01 | 2.01 | 92 | 1016.3 |
| 20260502024611 | 13 | 319 | 0.0 | 0.0 | 0.03 | 2.01 | 2.01 | 92 | 1016.2 |
| 20260502023025 | 13 | 319 | 0.0 | 0.0 | 0.03 | 1.98 | 1.98 | 91 | 1016.4 |
| 20260502020116 | 13 | 326 | 0.0 | 0.0 | 0.05 | 1.98 | 1.98 | 91 | 1015.8 |
| 20260502014516 | 13 | 333 | 0.0 | 0.0 | 0.05 | 1.98 | 1.98 | 91 | 1015.5 |
| 20260502013014 | 13 | 64 | 0.0 | 9.7 | 0.03 | 1.96 | 1.96 | 91 | 1014.7 |
| 20260502011526 | 13 | 10 | 0.0 | 6.4 | 0.03 | 1.96 | 1.96 | 90 | 1014.9 |
| 20260502010011 | 13 | 32 | 0.0 | 0.0 | 0.00 | 1.96 | 1.93 | 90 | 1014.9 |
| 20260502004515 | 13 | 32 | 0.0 | 6.4 | 0.00 | 1.96 | 1.93 | 90 | 1015.0 |
| 20260502003019 | 13 | 8 | 0.0 | 3.2 | 0.03 | 1.96 | 1.93 | 89 | 1014.8 |
| 20260502001505 | 13 | 10 | 0.0 | 6.4 | 0.03 | 1.96 | 1.93 | 89 | 1014.9 |
| 20260502000007 | 13 | 26 | 0.0 | 6.4 | 0.03 | 1.98 | 1.93 | 89 | 1014.6 |
| 20260501234511 | 13 | 18 | 0.0 | 4.8 | 0.03 | 1.98 | 1.93 | 89 | 1014.6 |
| 20260501233019 | 13 | 81 | 0.0 | 6.4 | 0.00 | 1.96 | 1.91 | 88 | 1014.5 |
| 20260501231512 | 14 | 44 | 0.0 | 6.4 | 0.00 | 1.96 | 1.91 | 86 | 1014.6 |
| 20260501230120 | 14 | 12 | 0.0 | 6.4 | 0.00 | 1.96 | 1.91 | 85 | 1014.7 |
| 20260501224515 | 14 | 82 | 0.0 | 1.6 | 0.00 | 2.06 | 1.91 | 85 | 1014.8 |
| 20260501223011 | 14 | 58 | 1.6 | 8.0 | 0.00 | 2.06 | 1.91 | 83 | 1014.3 |
| 20260501221512 | 14 | 20 | 0.0 | 9.7 | 0.00 | 2.06 | 1.91 | 84 | 1014.0 |
| 20260501214521 | 14 | 359 | 0.0 | 6.4 | 0.00 | 2.11 | 1.91 | 83 | 1013.9 |
| 20260501213118 | 14 | 18 | 1.6 | 8.0 | 0.00 | 2.11 | 1.91 | 83 | 1013.7 |
| 20260501211610 | 13 | 337 | 0.0 | 6.4 | 0.00 | 2.11 | 1.91 | 83 | 1014.0 |
| 20260501210022 | 13 | 25 | 6.4 | 12.9 | 0.00 | 2.11 | 1.91 | 81 | 1013.5 |
| 20260501204510 | 13 | 56 | 4.8 | 16.1 | 0.00 | 2.18 | 1.91 | 85 | 1012.9 |
| 20260501203104 | 13 | 87 | 6.4 | 14.5 | 0.03 | 2.18 | 1.91 | 88 | 1012.8 |
| 20260501201523 | 13 | 4 | 1.6 | 14.5 | 0.05 | 2.18 | 1.91 | 90 | 1012.3 |
| 20260501200010 | 13 | 354 | 3.2 | 16.1 | 0.05 | 2.44 | 1.91 | 91 | 1012.6 |
| 20260501194609 | 12 | 85 | 9.7 | 19.3 | 0.08 | 2.44 | 1.91 | 91 | 1012.7 |
| 20260501193030 | 12 | 112 | 3.2 | 9.7 | 0.08 | 2.41 | 1.88 | 91 | 1013.6 |
| 20260501191607 | 13 | 4 | 0.0 | 1.6 | 0.05 | 2.39 | 1.85 | 92 | 1014.5 |
| 20260501190132 | 12 | 323 | 0.0 | 11.3 | 0.08 | 2.39 | 1.85 | 93 | 1014.6 |
| 20260501184514 | 12 | 66 | 1.6 | 12.9 | 0.08 | 2.36 | 1.83 | 92 | 1014.6 |
| 20260501183021 | 12 | 41 | 1.6 | 9.7 | 0.05 | 2.34 | 1.80 | 93 | 1014.9 |
| 20260501181506 | 12 | 79 | 0.0 | 8.0 | 0.13 | 2.34 | 1.80 | 94 | 1015.6 |
| 20260501180019 | 12 | 79 | 0.0 | 1.6 | 0.15 | 2.31 | 1.78 | 94 | 1015.6 |
| 20260501174515 | 12 | 92 | 0.0 | 8.0 | 0.20 | 2.29 | 1.75 | 94 | 1015.8 |
| 20260501173109 | 12 | 4 | 0.0 | 1.6 | 0.28 | 2.29 | 1.75 | 94 | 1016.3 |
| 20260501171522 | 12 | 4 | 0.0 | 0.0 | 0.33 | 2.21 | 1.68 | 94 | 1016.5 |
| 20260501170017 | 12 | 134 | 0.0 | 6.4 | 0.41 | 2.16 | 1.63 | 94 | 1016.7 |